Weather observations for the past three days for
Chicopee Falls / Westover Air Force Base
Imperial (Metric)
Date Time (edt) Wind (mph) Vis. (mi.) Weather Sky Cond. Temperature (ºF) Relative Humidity Wind Chill (°F) Heat Index (°F) Pressure Precipitation (in)
Air Dwpt 6 hour altimeter (in) sea level (mb) 1 hr 3 hr 6 hr
Max. Min.
13 01:55 Calm 10.00 Fair CLR 53.1 50.2 72.9 53.1 90% 29.97 1015.4
13 00:55 Calm 10.00 Fair CLR 58.1 51.6 79% 29.97 1015.4
12 23:55 Calm 10.00 Fair CLR 62.6 51.1 66% 29.98 1015.7
12 22:55 NW 7 10.00 Mostly Cloudy BKN060 66.9 52.2 59% 29.98 1015.7
12 21:55 NW 9 10.00 Mostly Cloudy BKN060 68.7 52.3 56% 29.97 1015.4
12 20:55 NW 7 10.00 Mostly Cloudy BKN060 71.1 53.1 53% 29.94 1014.3
12 19:55 NW 9 10.00 Partly Cloudy SCT060 SCT090 72.9 52.5 79.2 72.7 49% 29.93 1014.0
12 18:55 NW 12 10.00 Mostly Cloudy SCT050 BKN250 75.4 53.1 46% 78 29.92 1013.7
12 17:55 NW 7 10.00 Mostly Cloudy SCT050 SCT080 BKN250 75.7 53.4 46% 78 29.91 1013.4
12 16:55 W 6 10.00 Mostly Cloudy SCT050 SCT080 BKN250 76.6 54.3 46% 78 29.92 1013.7
12 15:55 SW 9 10.00 Mostly Cloudy FEW050 FEW080 BKN250 78.1 55.6 46% 79 29.92 1013.7
12 14:55 SW 5 10.00 Mostly Cloudy SCT050 BKN070 BKN090 BKN250 76.6 53.6 45% 78 29.93 1014.0
12 13:55 S 5 10.00 Mostly Cloudy SCT047 BKN075 76.6 53.6 76.8 63.9 45% 78 29.95 1014.7
12 12:55 W 5 10.00 Mostly Cloudy SCT048 BKN075 75.4 53.1 46% 78 29.97 1015.4
12 11:55 NW 7 10.00 Mostly Cloudy SCT040 BKN049 BKN070 72.7 54 52% 29.97 1015.4
12 10:55 W 6 10.00 Partly Cloudy SCT031 SCT060 72 55.4 56% 29.98 1015.7
12 09:55 N 6 10.00 A Few Clouds FEW035 FEW050 69.8 55.2 60% 29.98 1015.7
12 08:55 NE 6 10.00 A Few Clouds FEW042 FEW050 68.2 55 63% 29.99 1016.1
12 07:55 Calm 10.00 A Few Clouds FEW041 FEW055 63.7 54.5 63.7 51.8 72% 29.99 1016.1
12 06:55 Calm 10.00 Mostly Cloudy BKN041 58.5 54.7 87% 29.99 1016.1
12 05:55 Calm 10.00 Overcast OVC040 54 52.5 95% 29.98 1015.8
12 04:55 Calm 2.25 Fog/Mist CLR 52.2 50.7 95% 29.96 0.0
12 03:55 Calm 10.00 Fair CLR 53.2 51.6 94% 29.96 0.0
12 02:55 Calm 10.00 Mostly Cloudy BKN070 53.6 52 94% 29.96 0.0
12 01:55 Calm 10.00 A Few Clouds FEW065 56.5 53.6 67.8 56.5 90% 29.96 0.0
12 00:55 Calm 10.00 Fair CLR 57.7 54.1 88% 29.96 0.0
11 23:55 Calm 10.00 Fair CLR 58.6 54.9 87% 29.96 0.0
11 22:55 Calm 10.00 Mostly Cloudy SCT050 BKN075 64.8 54 68% 29.95 0.0
11 20:55 Calm 10.00 Mostly Cloudy BKN050 BKN220 65.8 55.8 70% 29.91 1013.4
11 19:55 N 9 10.00 Mostly Cloudy SCT044 BKN065 BKN220 67.8 55.6 74.7 67.8 65% 29.91 1013.4
11 18:55 W 6 10.00 Mostly Cloudy SCT049 BKN070 BKN200 70.5 51.4 51% 29.89 1012.7
11 17:55 W 8 10.00 Mostly Cloudy SCT045 BKN060 BKN080 71.4 51.3 49% 29.88 1012.4
11 16:55 S 3 10.00 Mostly Cloudy SCT044 BKN060 71.2 52.7 52% 29.88 1012.4
11 15:55 N 3 10.00 Mostly Cloudy SCT042 BKN060 70.5 52 52% 29.88 1012.4
11 14:55 NW 3 10.00 Mostly Cloudy SCT044 BKN060 BKN250 70 52.5 54% 29.89 1012.7
11 13:55 N 5 10.00 Mostly Cloudy SCT040 BKN060 BKN250 71.4 50.2 71.4 62.1 47% 29.89 1012.7
11 12:55 Calm 10.00 Mostly Cloudy FEW036 BKN050 68.4 51.1 54% 29.89 1012.7
11 11:55 W 6 10.00 Mostly Cloudy FEW035 BKN050 67.8 51.6 56% 29.89 1012.7
11 10:55 NE 7 10.00 Mostly Cloudy BKN036 BKN050 BKN250 68.2 51.8 56% 29.88 1012.4
11 09:55 N 3 10.00 Mostly Cloudy SCT031 SCT200 BKN250 65.5 51.6 61% 29.88 1012.4
11 08:55 N 5 10.00 Partly Cloudy FEW025 FEW050 SCT250 64.2 50.9 62% 29.88 1012.4
11 07:55 N 3 10.00 Mostly Cloudy FEW022 FEW050 BKN250 62.4 51.3 62.4 50.9 67% 29.88 1012.4
11 06:55 Calm 10.00 Fair CLR 58.1 52.3 81% 29.85 1011.4
11 05:55 Calm 10.00 Mostly Cloudy BKN047 52.9 50 90% 29.83 1010.7
11 04:55 Calm 10.00 Overcast OVC045 54.7 52.3 92% 29.82 1010.3
11 03:55 Calm 10.00 Overcast OVC044 53.2 50.7 91% 29.8 1009.7
11 02:55 Calm 10.00 Overcast OVC045 52 49.1 90% 29.79 1009.3
11 01:55 Calm 10.00 Fair CLR 54.1 48.4 65.8 54.1 81% 29.79 1009.3
11 00:55 NW 6 10.00 Mostly Cloudy BKN043 57.9 49.3 73% 29.79 1009.3
10 23:55 Calm 10.00 A Few Clouds FEW060 61 53.4 76% 29.77 1008.6
10 22:55 NW 3 10.00 Mostly Cloudy BKN060 58.8 48.7 69% 29.75 1008.0
10 21:55 NW 12 10.00 Mostly Cloudy SCT038 BKN060 61.7 48.9 63% 29.72 1006.9
10 20:55 NW 13 10.00 Mostly Cloudy FEW038 SCT055 BKN065 64 50.4 61% 29.7 1006.3
10 19:55 NW 15 10.00 Mostly Cloudy SCT055 BKN085 66 50.4 72.7 65.8 57% 29.68 1005.6
10 18:55 NW 14 10.00 Mostly Cloudy SCT060 BKN085 67.5 50.2 54% 29.66 1004.9
10 17:55 N 12 G 18 10.00 Mostly Cloudy BKN070 BKN085 70.3 49.6 48% 29.64 1004.2
10 16:55 NW 18 G 23 10.00 Mostly Cloudy SCT065 BKN075 71.1 48.6 45% 29.62 1003.5
10 15:55 NW 12 10.00 Mostly Cloudy BKN050 BKN075 70.9 49.6 47% 29.61 1003.2
10 14:55 NW 9 10.00 Mostly Cloudy BKN050 BKN190 70.2 48.9 47% 29.6 1002.8
10 13:55 NW 10 10.00 Mostly Cloudy BKN050 BKN190 71.1 48.6 73.8 62.4 45% 29.59 1002.5
10 12:55 NW 17 G 23 10.00 Mostly Cloudy SCT046 BKN190 71.4 48.9 45% 29.58 1002.2
10 11:55 NW 15 G 20 10.00 Mostly Cloudy SCT047 BKN190 72.1 48.9 44% 29.57 1001.8
10 10:55 W 9 G 17 10.00 Partly Cloudy SCT040 SCT250 68.9 48.9 49% 29.58 0.0
10 09:55 W 13 10.00 A Few Clouds FEW035 67.1 49.5 53% 29.57 1001.8
10 08:55 NW 7 10.00 A Few Clouds FEW031 FEW060 64.6 48.9 57% 29.57 1001.8
10 07:55 W 5 10.00 A Few Clouds FEW035 FEW060 62.2 49.5 62.4 54.1 63% 29.57 1001.8
10 06:55 W 7 10.00 Fair CLR 59.9 48.9 67% 29.56 1001.5
10 05:55 Calm 10.00 A Few Clouds FEW060 56.5 50.4 80% 29.57 1001.8
10 04:55 NW 9 10.00 Fair CLR 58.8 50.9 75% 29.55 1001.2
10 03:55 W 10 10.00 Fair CLR 57.4 48.4 72% 29.54 1000.8
10 02:55 W 5 10.00 Overcast FEW046 OVC070 61.5 50 66% 29.55 1001.2
Date Time (edt) Wind (mph) Vis. (mi.) Weather Sky Cond. Air Dwpt Max. Min. Relative Humidity Wind Chill (°F) Heat Index (°F) altimeter (in) sea level (mb) 1 hr 3 hr 6 hr
6 hour
Temperature (ºF) Pressure Precipitation (in)